Temperature
26 25 25 24 23 22 21 21 21 20 20 20 20 20 20 20 20 20 20 19 19 19 19 19 19 19 19 19 19 19 19 19 19 19 19 19 19 19 19 19 19 19 18
27 26 25 24 23 22 22 21 21 21 21 20 20 20 20 20 20 20 20 19 19 19 19 19 19 19 19 19 19 19 19 19 19 19 19 19 19 20 19 19 19 19 19
27 26 25 24 23 22 22 21 21 21 21 21 20 20 20 20 20 20 20 20 19 19 19 19 19 19 19 19 19 19 19 19 19 19 19 19 19 19 19 19 19 19 19
28 27 26 25 24 23 22 22 21 21 21 21 20 20 20 20 20 20 20 20 20 19 19 19 19 19 19 19 19 19 19 19 19 19 19 19 19 19 19 19 19 19 19
28 27 26 25 24 24 23 22 22 21 21 21 21 20 20 20 20 20 20 20 20 19 19 19 19 19 19 19 19 19 19 19 19 19 19 19 19 19 19 19 19 19 19
29 28 27 25 25 24 23 22 22 21 21 21 21 21 20 20 20 20 20 20 20 19 19 19 19 19 19 19 19 19 19 19 19 19 19 19 19 19 19 19 19 19 19
29 28 27 25 25 24 23 22 22 21 21 21 21 21 21 20 20 20 20 20 20 20 19 19 19 19 19 19 19 19 19 19 19 19 19 19 19 19 19 18 18 18 19
29 28 27 26 25 24 24 23 22 21 21 21 21 21 20 20 20 20 20 20 20 20 20 20 20 19 19 19 19 19 19 19 18 18 18 18 18 18 18 18 18 18 18
29 28 27 26 25 25 24 23 22 21 21 21 21 20 20 20 20 20 20 20 20 20 20 20 19 19 19 19 19 19 19 19 18 18 18 18 18 18 18 18 18 18 18
29 28 27 27 26 25 24 23 22 22 21 21 21 20 20 20 20 20 20 20 20 20 20 19 19 19 19 19 19 19 19 19 18 18 18 18 18 18 18 18 18 18 18
29 28 28 27 26 25 24 23 22 22 21 21 21 20 20 20 20 20 20 20 19 19 19 19 19 19 19 19 19 19 18 18 18 18 18 18 18 18 18 18 18 18 18
29 28 27 26 26 25 24 23 23 22 21 21 21 20 20 20 20 20 20 19 19 19 19 19 19 19 19 19 18 18 18 18 18 18 18 18 18 18 18 18 18 17 17
28 27 27 26 25 25 24 23 23 22 21 21 20 20 20 20 19 19 19 19 19 19 19 19 19 19 18 18 18 18 18 18 18 18 18 18 18 18 17 17 17 17 17
27 26 26 25 25 24 24 23 23 22 21 21 20 20 20 20 20 19 19 19 19 19 19 19 19 18 18 18 18 18 18 18 18 18 18 17 17 17 17 17 17 17 17
26 25 25 24 24 24 23 23 22 22 22 21 20 20 20 20 19 19 19 19 19 19 19 18 18 18 18 18 18 18 18 18 17 17 17 17 17 17 17 16 16 16 16
25 25 24 24 23 23 22 22 22 22 21 21 20 20 20 19 19 19 19 19 19 18 18 18 18 18 18 18 18 18 18 17 17 17 17 17 17 17 17 16 16 16 16
24 24 24 23 23 23 22 22 22 21 21 21 20 20 20 19 19 19 19 19 19 18 18 18 18 18 18 18 18 17 17 17 17 17 16 16 16 16 16 16 16 16 15
24 23 23 23 23 22 22 21 21 21 20 20 20 20 19 19 19 18 18 18 18 18 18 18 18 18 18 17 17 17 17 17 16 16 16 16 16 16 16 16 15 15 15
23 22 22 22 22 22 21 21 20 20 20 20 19 19 19 18 18 18 18 18 18 18 18 18 17 17 17 17 17 17 16 16 16 16 16 16 16 16 15 15 15 15 15
22 22 22 21 21 21 20 20 20 20 19 19 19 19 18 18 18 18 18 18 18 18 17 17 17 17 17 17 17 17 16 16 16 15 15 15 15 15 15 15 15 14 14
21 21 21 21 20 20 20 20 19 19 19 19 18 18 18 18 18 18 18 18 17 17 17 17 17 17 17 17 17 16 16 16 15 15 15 15 15 15 15 15 14 14 14
21 20 20 20 20 19 19 19 19 18 18 18 18 18 17 17 17 17 17 17 17 17 17 17 17 16 17 17 16 16 16 16 15 15 15 15 15 15 14 14 14 14 13
20 20 20 19 19 19 19 18 18 18 18 17 17 17 17 17 17 17 17 17 17 16 16 16 16 16 16 16 16 16 15 15 15 14 14 14 14 14 14 14 13 13 13
19 19 19 18 18 18 18 18 18 17 17 17 17 17 17 17 17 17 16 16 16 16 16 16 15 15 15 15 15 15 15 14 14 14 14 14 13 13 13 13 13 13 12
19 18 18 18 17 17 17 17 17 17 17 17 16 16 16 16 16 16 16 16 16 16 16 15 15 15 15 15 15 15 14 14 14 13 13 13 13 12 12 12 12 12 12
18 18 17 17 17 17 16 16 16 16 16 16 16 16 16 16 16 16 16 15 15 15 15 15 15 15 15 15 14 14 14 14 13 13 13 12 12 12 12 12 12 12 12
Wind_Speed
12 12 12 12 11 9 8 7 6 6 4 3 3 3 3 2 3 3 5 4 3 3 1 1 1 2 1 2 2 2 1 1 1 1 0 1 2 2 3 3 3 3 4
13 12 12 11 11 10 9 8 7 7 6 4 3 3 3 2 3 2 4 4 3 3 3 2 1 1 1 2 1 1 1 1 1 1 0 0 0 1 3 3 3 3 3
14 14 12 11 11 11 10 9 7 7 7 5 3 3 3 1 2 3 3 3 3 3 1 1 1 1 1 2 2 2 2 1 0 0 1 0 0 1 0 2 2 2 2
14 15 14 12 12 12 12 9 8 7 6 5 4 4 4 3 2 3 3 3 3 3 3 2 1 1 1 1 2 2 2 1 1 1 1 0 1 0 0 1 1 3 3
13 14 14 12 12 12 12 10 9 8 7 6 5 4 3 3 2 2 4 3 3 3 2 2 1 1 1 0 0 0 0 1 1 1 1 1 1 1 1 1 1 2 2
11 12 13 12 11 11 11 11 10 8 7 6 5 4 4 3 2 2 3 3 2 2 2 2 1 1 1 1 1 1 1 1 1 1 1 0 0 0 1 1 2 2 2
11 11 11 12 11 11 11 11 11 9 8 7 6 5 4 3 3 3 3 3 2 3 2 2 2 1 1 1 1 1 1 1 1 1 1 1 1 1 1 1 2 2 2
10 12 12 11 11 11 10 11 11 10 9 8 6 5 4 3 2 2 2 2 1 2 3 3 2 2 2 2 2 2 2 2 2 2 1 2 2 1 1 1 2 2 2
10 11 11 12 12 12 10 11 11 10 9 8 6 5 4 3 3 2 2 1 1 2 3 3 3 2 2 1 2 2 2 1 1 1 2 2 2 2 2 1 2 2 2
9 10 10 10 10 10 10 10 11 10 8 7 7 6 5 4 3 2 2 2 1 1 2 3 3 3 2 2 2 2 2 2 2 2 2 2 2 2 2 2 2 1 1
6 8 9 8 9 10 10 10 10 10 9 8 6 5 6 5 4 3 3 2 2 2 2 3 3 2 2 2 3 3 3 3 2 2 2 3 2 2 2 2 2 2 1
6 6 8 7 7 8 9 9 9 9 8 8 7 6 6 5 5 4 4 4 3 3 3 3 3 3 3 3 3 4 3 3 3 2 2 2 2 2 2 2 2 2 2
5 6 6 6 5 6 6 7 8 8 8 7 7 6 6 6 5 5 4 4 4 4 4 4 3 3 2 2 2 2 2 2 2 2 2 2 2 2 2 1 2 2 3
5 5 6 5 5 5 5 6 6 6 6 6 6 6 5 5 5 4 4 4 4 4 4 4 4 3 2 2 2 2 2 2 2 2 2 2 2 2 2 2 2 2 3
4 4 6 5 5 5 4 5 5 5 5 5 5 5 5 4 4 5 4 4 4 5 4 3 3 3 4 4 3 3 4 3 2 2 2 2 1 1 0 1 1 2 2
4 4 5 5 4 5 4 4 4 4 5 5 5 5 5 4 4 4 4 4 4 4 3 3 3 3 4 2 2 3 2 3 2 2 2 2 1 1 1 0 1 1 2
4 3 3 3 3 4 4 4 3 3 4 4 4 4 4 4 4 4 4 4 4 3 3 4 4 3 2 2 3 4 4 3 3 3 2 4 3 2 1 1 1 2 3
3 3 2 2 3 4 4 4 4 3 4 4 4 4 4 4 4 4 4 4 3 4 4 4 4 3 3 2 2 4 4 4 3 3 3 3 1 2 0 1 2 3 3
3 2 1 0 1 2 2 3 2 3 3 4 4 3 4 4 4 4 3 3 3 4 4 4 4 3 3 3 3 3 4 3 4 4 3 3 2 1 1 1 2 3 3
2 1 1 1 1 1 1 1 1 1 2 2 2 2 2 3 4 4 3 3 3 4 4 4 4 4 3 4 4 5 4 3 3 2 2 2 3 3 2 2 2 3 3
1 1 1 1 1 1 1 1 1 1 1 1 2 2 3 3 3 3 3 3 4 4 4 4 4 4 4 5 6 6 4 3 3 3 2 2 4 5 4 3 2 3 3
0 0 0 1 1 1 2 1 1 1 1 2 3 3 3 4 4 3 4 4 5 5 4 4 3 3 3 4 5 5 4 2 2 2 1 2 4 3 3 2 3 3 2
1 1 0 0 1 1 2 2 1 1 2 2 3 3 3 4 4 4 5 5 4 4 4 3 3 2 1 1 3 3 3 1 1 1 2 3 3 2 2 3 4 3 2
1 1 0 1 1 0 0 1 1 1 2 3 3 3 4 4 3 3 3 3 3 3 3 3 3 2 1 1 1 0 0 0 0 0 1 2 2 2 2 2 3 3 2
1 1 1 1 1 1 1 1 1 1 3 3 3 4 4 4 2 2 0 1 1 2 3 3 2 3 2 2 3 2 2 1 1 1 1 1 2 2 2 2 3 2 2
1 1 1 2 2 2 2 1 1 2 3 3 3 3 3 2 2 2 1 5 2 1 0 1 2 1 2 2 2 2 2 2 3 2 2 2 2 2 2 3 3 3 3
Wind_Direction
163 162 162 158 156 150 149 153 160 151 158 159 162 158 157 172 158 155 143 148 159 143 135 78 91 108 115 127 142 146 187 176 150 169 236 211 194 180 168 174 180 178 175
164 166 168 163 160 155 154 157 164 162 170 171 175 171 158 169 162 139 135 152 160 164 166 149 189 130 148 144 165 149 182 217 165 163 163 251 281 286 208 179 189 192 184
170 168 170 168 165 161 162 170 170 164 176 172 173 176 151 173 153 145 154 166 163 165 108 152 198 193 195 172 190 185 191 211 242 165 169 164 193 269 231 208 185 177 188
172 173 175 175 173 169 168 166 164 162 167 172 182 181 170 181 179 163 156 160 171 173 173 193 195 209 209 176 204 172 212 204 228 246 219 180 117 114 312 276 195 190 203
169 174 174 174 175 172 169 165 162 162 165 177 189 196 192 184 169 153 147 164 177 181 180 171 172 190 168 176 263 163 242 252 268 254 241 232 213 206 184 255 268 237 209
166 172 169 166 171 168 165 165 159 161 165 175 188 194 209 193 178 170 162 174 173 182 179 157 160 164 173 197 212 205 196 237 280 304 303 287 46 252 254 264 262 267 244
166 161 161 165 170 170 168 162 158 164 170 176 185 185 205 198 183 193 182 186 180 176 170 167 162 168 184 201 209 203 205 219 234 239 277 301 280 289 280 276 276 292 283
157 156 159 165 173 171 167 161 160 165 172 176 182 179 191 201 191 200 197 193 194 160 151 161 162 171 216 218 213 221 212 202 219 226 245 264 277 296 261 243 260 279 285
157 157 162 169 174 172 167 162 158 163 169 173 172 170 171 181 190 177 208 207 171 162 148 159 159 178 212 230 220 226 223 193 217 240 249 258 269 269 284 283 263 264 288
163 159 160 167 166 166 161 156 155 161 165 168 177 178 178 185 194 180 183 203 182 162 148 165 174 183 203 216 212 226 215 196 209 225 239 258 279 294 292 283 284 288 262
146 152 152 157 159 160 161 158 155 160 168 173 175 173 178 186 191 197 187 194 190 179 178 193 193 196 208 214 219 222 209 207 216 236 227 230 239 281 294 293 288 291 282
129 135 139 138 147 153 157 158 161 167 171 171 170 176 177 184 191 196 197 194 194 198 200 205 205 212 217 221 223 232 211 213 218 222 222 226 234 254 283 299 315 310 296
105 113 114 126 129 138 146 157 163 168 170 168 173 177 183 188 192 195 197 195 197 206 209 207 215 226 225 219 222 232 217 216 218 205 214 225 213 235 260 270 285 285 297
97 107 110 110 118 122 131 145 157 165 167 168 178 178 187 192 193 197 197 199 205 215 221 215 216 220 231 216 209 216 225 227 225 208 218 235 224 235 260 262 270 282 293
86 87 103 111 117 119 123 136 148 152 161 164 177 181 186 190 194 198 201 199 201 214 219 225 225 225 233 228 208 205 215 220 232 220 214 221 200 172 281 294 307 302 295
113 97 97 112 121 124 133 135 149 151 153 166 180 179 183 194 200 200 194 196 198 211 209 217 229 240 255 242 202 221 225 209 214 229 239 215 184 161 164 202 315 303 288
112 99 106 126 136 144 141 150 148 154 162 172 180 182 182 194 199 205 197 202 205 209 207 216 221 228 266 249 223 220 236 227 212 215 234 264 257 186 204 255 261 278 278
97 101 105 149 165 157 157 156 164 168 179 184 188 186 190 194 194 200 201 201 203 206 210 220 223 222 239 233 239 229 234 226 211 215 221 241 252 265 272 269 274 274 277
80 73 68 56 94 120 130 137 168 187 196 194 189 182 189 197 198 203 199 196 203 210 212 218 224 220 227 205 207 221 240 228 216 217 222 225 210 180 127 252 263 279 293
77 33 9 49 91 72 92 131 192 192 201 199 187 178 193 202 201 200 199 203 215 218 217 217 217 217 217 201 205 216 238 235 229 211 196 206 190 178 174 217 243 264 285
93 35 6 76 115 112 118 175 237 224 237 236 213 204 212 221 213 203 206 210 217 219 219 223 220 218 212 198 204 213 235 247 234 218 200 178 163 174 186 208 234 244 268
20 53 43 67 113 133 148 190 224 242 248 238 220 218 221 230 225 216 219 216 216 221 218 219 225 224 207 199 196 198 224 268 262 246 202 149 149 172 192 211 236 249 280
302 263 18 26 95 129 153 210 225 245 251 243 233 226 226 232 228 221 221 219 219 227 223 220 226 234 200 158 169 186 191 226 274 301 142 147 163 165 200 216 233 257 267
313 351 347 309 327 312 259 198 221 237 252 243 237 230 222 227 223 224 229 225 228 234 234 232 229 215 208 148 125 164 156 116 240 101 117 145 187 228 235 242 250 249 256
306 317 298 282 299 312 325 328 249 233 253 245 237 241 232 222 211 199 214 227 237 244 240 240 228 222 225 217 194 200 216 228 201 154 198 227 216 221 229 232 238 242 237
313 286 274 266 270 287 289 295 295 253 245 244 245 247 240 213 208 173 88 34 23 30 35 202 206 205 171 164 158 150 170 196 181 177 220 221 218 228 232 239 246 248 249
Height
1499 1503 1506 1508 1510 1512 1513 1514 1516 1517 1519 1520 1522 1523 1525 1526 1527 1528 1529 1529 1529 1530 1530 1531 1531 1532 1533 1533 1534 1535 1536 1537 1538 1538 1539 1539 1540 1540 1540 1541 1541 1542 1542
1497 1501 1504 1506 1509 1510 1511 1513 1515 1516 1518 1520 1521 1523 1525 1526 1527 1528 1529 1529 1530 1530 1531 1531 1532 1532 1532 1533 1534 1534 1535 1536 1537 1537 1538 1539 1540 1539 1540 1540 1540 1541 1541
1493 1497 1501 1504 1507 1509 1510 1512 1514 1515 1517 1519 1521 1523 1524 1526 1527 1528 1529 1529 1530 1530 1530 1531 1531 1532 1532 1533 1533 1533 1534 1535 1536 1536 1537 1538 1538 1538 1539 1539 1539 1540 1540
1490 1494 1498 1501 1504 1507 1509 1511 1513 1514 1516 1518 1520 1522 1524 1525 1527 1528 1528 1529 1530 1530 1530 1531 1531 1531 1532 1532 1532 1533 1533 1534 1535 1535 1536 1537 1537 1538 1539 1539 1539 1539 1539
1486 1491 1495 1498 1502 1505 1507 1509 1511 1513 1515 1517 1519 1521 1523 1525 1526 1527 1528 1528 1529 1529 1530 1530 1530 1531 1531 1531 1531 1532 1532 1533 1534 1534 1535 1536 1536 1537 1537 1537 1538 1538 1538
1483 1488 1492 1496 1500 1503 1506 1508 1510 1512 1514 1516 1518 1520 1522 1523 1524 1526 1526 1527 1528 1529 1529 1530 1530 1530 1530 1530 1530 1531 1531 1532 1533 1533 1534 1534 1535 1535 1536 1536 1536 1536 1536
1481 1486 1491 1494 1498 1502 1504 1506 1508 1510 1512 1514 1517 1518 1520 1521 1523 1524 1525 1526 1527 1528 1528 1529 1529 1529 1529 1529 1529 1529 1530 1531 1531 1532 1533 1533 1534 1535 1535 1535 1534 1534 1534
1479 1484 1488 1493 1496 1499 1502 1505 1506 1509 1511 1513 1515 1517 1518 1520 1521 1523 1524 1525 1526 1527 1527 1527 1528 1528 1528 1528 1528 1528 1529 1529 1529 1530 1531 1532 1532 1533 1533 1534 1533 1533 1532
1478 1482 1486 1490 1495 1497 1500 1502 1504 1507 1509 1512 1514 1515 1517 1518 1520 1522 1523 1524 1525 1526 1526 1526 1526 1526 1526 1526 1527 1527 1527 1527 1528 1528 1529 1530 1530 1530 1531 1531 1531 1532 1530
1476 1480 1485 1489 1492 1495 1498 1501 1503 1505 1508 1510 1512 1514 1515 1517 1519 1520 1521 1523 1523 1524 1524 1525 1525 1525 1525 1525 1525 1525 1525 1525 1526 1526 1527 1527 1528 1528 1529 1529 1529 1529 1529
1475 1479 1483 1487 1490 1494 1497 1499 1502 1504 1506 1508 1510 1513 1514 1516 1517 1519 1520 1521 1522 1522 1523 1523 1523 1523 1523 1523 1523 1523 1523 1524 1524 1524 1525 1525 1525 1526 1526 1526 1527 1527 1527
1475 1478 1482 1485 1489 1492 1495 1498 1500 1503 1505 1507 1509 1511 1513 1514 1515 1517 1518 1519 1519 1520 1521 1521 1521 1521 1521 1521 1521 1521 1521 1522 1522 1522 1522 1523 1523 1523 1524 1524 1524 1524 1524
1475 1478 1481 1484 1487 1490 1493 1496 1499 1502 1504 1506 1507 1509 1511 1512 1513 1514 1515 1516 1517 1518 1518 1518 1519 1519 1519 1519 1519 1519 1519 1519 1520 1520 1520 1520 1521 1521 1521 1521 1521 1521 1521
1477 1479 1481 1484 1487 1489 1492 1495 1497 1500 1502 1504 1505 1507 1508 1510 1511 1512 1513 1514 1515 1515 1516 1516 1516 1516 1517 1517 1517 1517 1517 1517 1517 1517 1517 1517 1518 1518 1518 1518 1518 1517 1517
1478 1480 1482 1485 1487 1489 1491 1494 1496 1498 1500 1501 1503 1504 1506 1507 1509 1510 1511 1511 1512 1513 1513 1514 1514 1514 1514 1514 1514 1514 1514 1514 1514 1514 1514 1514 1515 1515 1515 1515 1514 1514 1514
1479 1481 1483 1485 1487 1489 1491 1493 1495 1496 1498 1499 1501 1502 1504 1505 1506 1507 1508 1509 1509 1510 1511 1511 1511 1511 1512 1512 1511 1511 1511 1511 1511 1511 1511 1511 1511 1511 1512 1511 1512 1512 1511
1479 1481 1483 1485 1486 1488 1490 1492 1493 1495 1496 1497 1499 1500 1501 1502 1503 1504 1505 1505 1506 1507 1507 1508 1508 1508 1508 1508 1508 1508 1508 1507 1506 1507 1507 1508 1508 1508 1508 1507 1508 1508 1508
1479 1481 1483 1485 1486 1488 1489 1490 1492 1493 1494 1495 1496 1498 1498 1499 1500 1501 1501 1502 1503 1503 1503 1504 1504 1505 1504 1505 1504 1504 1504 1503 1502 1503 1503 1504 1504 1504 1504 1504 1504 1504 1504
1480 1481 1482 1484 1485 1486 1487 1489 1490 1491 1492 1493 1494 1494 1495 1496 1496 1497 1498 1498 1499 1500 1500 1500 1501 1501 1501 1501 1501 1501 1501 1500 1499 1500 1500 1500 1500 1500 1500 1500 1500 1499 1500
1479 1480 1481 1482 1483 1484 1485 1486 1488 1488 1489 1489 1490 1491 1492 1493 1493 1494 1494 1495 1496 1496 1496 1497 1497 1497 1497 1497 1497 1497 1497 1497 1497 1496 1496 1496 1496 1496 1496 1496 1496 1495 1495
1477 1478 1480 1480 1481 1482 1483 1484 1485 1485 1486 1487 1488 1488 1489 1490 1490 1491 1492 1492 1492 1493 1493 1493 1493 1493 1493 1493 1493 1493 1494 1493 1493 1493 1492 1492 1493 1492 1492 1492 1492 1492 1492
1476 1477 1478 1479 1479 1480 1480 1481 1482 1483 1483 1484 1484 1485 1486 1487 1487 1487 1488 1489 1489 1489 1489 1489 1489 1489 1489 1489 1489 1489 1490 1490 1489 1489 1489 1489 1489 1489 1489 1489 1489 1489 1488
1474 1475 1476 1477 1477 1478 1478 1479 1479 1480 1481 1481 1481 1482 1483 1483 1484 1484 1485 1486 1486 1486 1486 1486 1485 1485 1485 1485 1485 1485 1485 1486 1486 1485 1485 1485 1485 1485 1485 1485 1485 1485 1484
1472 1473 1474 1475 1475 1476 1476 1476 1476 1477 1477 1477 1478 1478 1479 1479 1480 1481 1482 1482 1482 1482 1482 1482 1482 1482 1481 1481 1481 1481 1481 1482 1481 1482 1482 1482 1482 1482 1482 1482 1481 1481 1481
1470 1471 1472 1472 1473 1473 1473 1473 1473 1474 1474 1474 1475 1475 1476 1476 1477 1477 1477 1478 1478 1479 1479 1479 1478 1478 1478 1478 1478 1477 1477 1478 1478 1478 1478 1478 1478 1478 1478 1479 1478 1478 1478
1468 1469 1469 1470 1470 1470 1470 1470 1471 1471 1471 1471 1471 1472 1473 1473 1473 1473 1473 1474 1475 1475 1475 1476 1476 1475 1475 1475 1475 1475 1474 1474 1475 1475 1474 1474 1474 1474 1475 1475 1475 1475 1475